Location: ???????????
(38.2661°N, 23.2350°E)
Time: 16:08:59
(UTC+00:00)

Daily predictions for brighter satellites

Satellite Brightness Start Highest point End
(mag) Time Altitude Azimuth Time Altitude Azimuth Time Altitude Azimuth
ATLAS 3B R/B 3.8 16:40:39 10° SSE 16:45:20 20° ESE 16:50:13 10° ENE
Cosmos 1844 Rocket 2.8 16:42:10 10° NNW 16:47:38 55° ENE 16:53:05 10° SE
Cosmos 1626 1.9 16:44:43 10° N 16:48:12 89° E 16:51:40 10° S
SL-16 R/B 3.5 16:44:50 10° SW 16:50:15 46° WNW 16:55:42 10° N
Cosmos 2219 Rocket 2.7 16:45:44 10° S 16:50:49 37° ESE 16:55:55 10° NE
JB-3 4.2 16:47:28 10° NNE 16:51:16 64° E 16:55:06 10° S
Cosmos 1805 4.4 16:49:41 10° SE 16:52:29 20° E 16:55:19 10° NE
Okean O Rocket 3.5 16:51:59 10° E 16:53:54 13° ENE 16:55:50 10° NE
In-Cosmos 22 4.1 16:49:50 10° N 16:55:11 59° E 17:00:23 10° SSE
YAOGAN 1 2.7 16:56:38 10° SSE 17:00:47 50° ENE 17:04:58 10° N
NOSS 2-3 (C) 3.3 16:59:24 10° SSW 17:03:00 52° ESE 17:06:48 10° NE
Cosmos 1633 Rocket 3.0 16:59:09 10° S 17:03:27 88° ESE 17:07:49 10° N
COSMO-SKYMED 1 3.9 16:59:31 10° N 17:03:40 45° WNW 17:07:47 10° SW
NOSS 2-3 (D) 3.2 17:04:29 10° SSW 17:08:07 55° ESE 17:11:56 10° NE
Cosmos 1862 Rocket 3.4 17:04:50 10° N 17:09:10 74° E 17:13:29 10° SSE
Cosmos 2181 Rocket 4.1 17:04:05 10° SSE 17:10:19 56° E 17:16:33 10° NNE
CZ-4B R/B 3.8 17:06:40 10° SE 17:11:21 33° ENE 17:16:03 10° N
DELTA 2 DEB (DPAF) 4.0 17:07:02 10° NNE 17:11:21 82° E 17:15:40 10° S
CZ-4B R/B 2.7 17:08:39 10° S 17:12:13 78° WSW 17:15:44 10° NNW
Meteor 1-23 Rocket 4.3 17:07:12 10° N 17:13:03 89° WSW 17:18:52 10° S
SL-14 R/B 4.4 17:09:58 10° NNE 17:13:08 23° ENE 17:15:02 16° ESE
Cosmos 2084 3.1 17:09:56 10° NNW 17:13:44 83° NE 17:17:41 10° SE
Cosmos 2322 Rocket 3.5 17:09:25 10° SW 17:14:44 43° WNW 17:20:05 10° N
USA 215 3.5 17:08:57 10° NE 17:15:17 50° SE 17:21:34 10° SSW
Cosmos 1331 Rocket 4.2 17:13:49 10° N 17:18:58 53° ENE 17:24:07 10° SE
CZ-4C R/B 3.6 17:17:55 10° NNE 17:21:01 32° E 17:24:09 10° SSE
Cosmos 1733 2.9 17:17:35 10° S 17:21:13 77° E 17:24:55 10° N
Meteor 2-11 Rocket 4.4 17:15:22 10° N 17:21:27 66° E 17:27:32 10° SSE
Okean 3 3.6 17:17:31 10° N 17:21:31 49° E 17:25:30 10° SSE
Cosmos 1726 1.9 17:18:26 10° S 17:21:49 80° W 17:25:12 10° N
Cosmos 2278 Rocket 4.1 17:22:21 10° NNE 17:24:39 12° NE 17:25:51 12° ENE
Landsat 7 4.0 17:26:38 10° SSE 17:31:09 49° ENE 17:35:41 10° N
Cosmos 1470 Rocket 3.7 17:27:01 10° SSW 17:31:20 75° W 17:35:43 10° N
Cosmos 1452 Rocket 3.5 17:26:03 10° NNW 17:31:21 89° WSW 17:36:36 10° SSE
USA 186 3.9 17:36:26 13° NNE 17:36:26 13° NNE 17:37:03 10° NNE
Meteor 1-21 4.2 17:30:54 10° N 17:36:44 80° E 17:42:30 10° SSE
Cosmos 1844 4.1 17:31:04 10° NNW 17:36:50 67° WSW 17:42:30 10° S
Okean 2 4.2 17:33:48 10° NNE 17:37:19 28° ENE 17:37:22 28° ENE
DEBRIS 2.3 17:35:19 10° NW 17:37:22 47° NE 17:37:50 41° ENE
Cosmos 1674 4.5 17:34:54 10° NNW 17:38:08 32° W 17:41:22 10° SSW
USA 308 4.3 17:36:08 10° NNW 17:38:41 18° NNE 17:39:15 17° NE
NOSS 2-3 (E) 3.9 17:35:30 10° SW 17:39:07 55° NW 17:43:02 10° NNE
SPOT 1/Viking Rocket 4.3 17:40:11 27° E 17:41:29 31° ENE 17:45:58 10° N
NOSS 2-2 (E) 2.8 17:38:14 10° SSW 17:41:46 84° WNW 17:44:20 15° NNE
Cosmos 1340 Rocket 2.7 17:38:40 10° N 17:42:43 73° E 17:45:50 16° SSE
Cosmos 2360 Rocket 3.9 17:39:08 10° SW 17:44:16 35° WNW 17:49:26 10° N
SJ-6B 2.9 17:42:40 26° SE 17:44:43 57° ENE 17:48:40 10° N
NOSS 3-1 (C) 3.1 17:41:39 10° S 17:46:13 49° ESE 17:51:29 10° NE
Cosmos 2333 Rocket 3.3 17:40:54 10° SW 17:46:16 45° WNW 17:51:42 10° N
Cosmos 614 Rocket 4.3 17:44:12 10° SSE 17:48:50 38° ESE 17:53:29 10° NE
Cosmos 1821 Rocket 4.1 17:44:30 10° N 17:50:39 55° E 17:55:31 17° SSE
Cosmos 2322 3.6 17:45:14 10° SSW 17:50:57 85° ESE 17:56:43 10° NNE
COSMOS 2428 2.6 17:45:37 10° S 17:51:13 66° ESE 17:56:51 10° NNE
NOSS 2-2 (D) 2.9 17:57:12 10° SW 18:00:40 75° WNW 18:01:11 58° N
Cosmos 2366 rocket 4.4 17:54:48 10° NNW 18:00:54 64° W 18:06:55 10° S
Nadezhda 3 Rocket 4.0 17:56:28 10° S 18:02:42 62° E 18:08:57 10° NNE
NOSS 2-2 (C) 3.0 17:59:46 10° SW 18:03:15 71° WNW 18:03:41 60° N
Cosmos 1703 Rocket 3.5 18:00:25 10° N 18:04:52 84° W 18:07:23 26° S
H-2A R/B (2) 3.1 18:02:09 10° SW 18:04:58 27° SSE 18:04:58 27° SSE
CZ-4 R/B 1.9 18:04:29 17° S 18:07:17 55° W 18:11:05 10° NNW
MOS 1-B 4.4 18:04:07 10° S 18:09:48 78° WSW 18:15:36 10° NNW
Cosmos 1933 Rocket 4.4 18:05:57 10° SSW 18:10:14 51° W 18:14:31 10° N
Cosmos 1269 Rocket 4.0 18:07:15 10° S 18:12:24 56° ESE 18:17:35 10° NNE
Okean 1-7 4.2 18:13:38 10° NNW 18:17:43 42° W 18:21:47 10° SSW
Gbstr 26 Del rocket 4.4 18:15:31 10° SW 18:23:24 86° SE 18:28:40 24° NE
Okean O Rocket 2.1 18:28:49 48° SW 18:29:40 58° W 18:34:02 10° NNW
Cosmos 2219 Rocket 4.1 18:30:01 10° WSW 18:34:47 28° WNW 18:39:36 10° N
ATLAS 3B R/B 2.9 18:28:25 10° SW 18:35:11 72° NW 18:42:32 10° NNE
BREEZE-M DEB (TANK) 4.0 18:32:32 10° NW 18:34:54 41° N 18:34:54 41° N
CSL-04 Debris 4.4 18:36:50 48° SSW 18:38:18 69° WSW 18:43:44 10° NNW
Milstar 3 Cent rocket 3.5 18:30:21 10° WSW 18:40:49 41° S 18:41:46 40° S
Resurs 01 Rocket 2.9 18:44:30 35° N 18:44:30 35° N 18:47:06 10° N
Cosmos 1943 Rocket 3.9 18:39:03 10° N 18:41:32 19° NNE 18:41:32 19° NNE
Cosmos 1818 4.1 18:39:21 10° NNW 18:43:41 49° NNE 18:43:41 49° NNE
COSMOS 2455 3.0 18:51:29 10° NNW 18:56:34 63° N 18:56:34 63° N
Okean-O 4.4 18:59:51 28° NNW 18:59:51 28° NNW 19:01:59 10° NNW
USA 215 4.1 18:52:06 10° NE 18:58:12 47° NW 19:04:23 10° WSW
CSL-04 Rocket 4.4 19:00:01 46° WSW 19:00:25 47° W 19:05:30 10° NNW
NOSS 0 Rocket 4.5 19:02:00 10° SW 19:08:02 55° WNW 19:14:09 10° NNE
Cosmos 2278 Rocket 3.1 19:03:56 10° NNW 19:07:42 43° NNW 19:07:42 43° NNW
ADEOS Rocket 3.7 19:07:44 52° SSW 19:09:45 70° WSW 19:17:22 10° NNW
USA 267 3.8 19:31:55 51° NNW 19:31:55 51° NNW 19:36:50 10° NW
